RH
23 28 28 29 30 29 26 26 23 27 27 28 31 32 32 26 21 20 21 23 23 26 30 35 35 30 32 53 80 98 94 84 86 78 72 78 65 59 70 67 55 47 38 30
18 20 23 24 24 24 25 26 27 29 29 28 27 28 25 22 20 21 23 24 24 30 39 37 35 34 44 90 99 89 81 80 93 89 68 52 55 60 59 55 47 34 30 34
20 18 18 19 20 20 20 22 25 28 29 26 26 24 21 22 24 24 26 26 31 39 39 36 40 58 93 99 89 84 88 100 81 67 50 58 59 58 52 34 29 34 39 41
19 19 21 20 18 20 22 23 22 24 23 22 21 21 22 23 25 29 38 40 41 40 45 60 82 100 96 87 95 99 89 65 54 54 56 56 52 36 31 34 39 40 42 47
25 26 25 23 22 20 20 19 19 20 22 21 22 24 28 33 39 44 42 42 46 54 72 84 83 88 85 95 98 91 63 54 58 59 56 44 39 35 38 41 43 45 44 52
25 25 26 24 24 24 22 24 25 25 26 24 22 26 31 34 40 41 50 59 73 80 77 68 80 100 99 97 86 59 58 60 58 48 39 38 42 40 40 46 44 45 52 51
48 55 58 47 40 32 29 33 27 31 33 35 38 42 47 49 55 79 87 88 86 77 81 82 97 100 95 75 62 62 62 51 43 39 39 40 41 44 46 45 45 54 58 51
68 68 70 55 50 52 65 69 63 58 69 75 71 72 73 92 100 89 66 72 70 84 96 100 95 87 71 67 64 52 44 41 40 42 42 44 47 50 47 45 54 55 47 26
100 100 100 100 98 82 84 82 91 96 80 85 92 80 68 78 73 68 69 91 93 100 98 89 80 76 67 59 46 43 42 45 42 46 47 49 51 46 48 58 55 27 15 12
100 100 100 100 100 100 100 100 94 85 92 78 76 81 85 69 56 80 92 99 96 89 84 80 69 69 60 55 50 52 49 45 47 51 49 49 50 52 59 48 22 13 9 8
86 90 96 91 82 89 97 89 77 74 70 62 68 68 65 77 89 91 86 87 82 78 70 72 68 61 56 52 51 50 48 50 51 52 49 50 55 62 50 21 10 8 8 6
74 73 83 87 88 84 79 82 82 84 79 80 86 79 78 83 86 86 88 84 84 86 76 67 64 58 53 53 50 50 52 56 51 48 50 56 59 48 23 9 9 8 5 5
56 51 50 52 65 68 68 74 82 82 83 81 71 77 87 85 81 88 95 93 83 70 77 69 57 51 47 48 57 61 51 46 50 52 52 56 37 14 9 10 9 6 6 6
66 59 55 50 51 49 52 51 51 50 53 55 74 87 86 81 84 85 80 71 71 68 62 55 48 50 58 58 55 52 51 50 52 53 45 19 9 8 9 8 7 7 8 7
67 68 69 73 72 71 72 66 56 53 60 77 84 80 84 80 70 70 69 71 68 60 57 59 59 59 60 57 50 49 53 53 48 32 13 8 8 8 6 6 7 8 7 6
80 80 82 84 87 83 73 66 67 76 81 83 85 82 75 69 67 70 70 70 72 64 61 60 60 57 53 51 53 53 46 37 23 10 8 8 8 6 6 7 7 6 5 5
68 69 76 84 81 74 76 79 79 70 69 69 67 68 72 72 73 74 75 70 64 65 59 56 55 54 52 54 43 38 27 12 8 9 9 7 6 6 6 6 6 5 5 5
71 70 64 57 56 58 64 68 69 70 73 76 72 71 74 78 76 73 70 70 66 53 57 58 54 53 49 36 31 16 8 8 10 9 7 6 6 6 6 5 5 5 5 4
65 61 61 63 67 72 75 73 70 70 71 73 73 74 74 77 74 70 68 58 56 61 57 53 50 38 30 22 11 9 10 10 8 7 6 6 6 5 4 4 5 5 4 4
65 66 68 68 66 67 68 72 75 74 72 73 80 82 75 69 67 62 62 59 57 57 56 49 36 25 18 12 10 10 9 8 7 6 6 6 5 4 4 5 4 4 4 4
76 81 79 78 79 83 87 83 79 81 80 72 69 68 67 68 69 64 60 62 63 58 48 31 17 13 13 11 10 8 7 7 6 6 6 4 4 5 5 4 4 3 4 4
80 77 76 75 77 80 81 82 76 68 70 75 78 78 73 65 65 68 69 69 55 45 27 15 13 13 10 8 7 7 7 7 6 5 4 4 5 5 4 4 3 3 3 3
88 84 82 82 80 77 76 79 82 83 83 80 75 71 74 79 74 68 62 51 33 17 13 13 12 9 8 7 6 7 7 6 5 4 4 4 4 4 4 3 3 3 3 4
90 90 92 94 97 95 90 85 80 77 76 81 82 82 75 62 59 46 36 20 15 14 13 11 8 8 7 6 7 7 6 5 5 4 4 4 4 4 3 3 3 3 4 5
96 95 91 85 80 77 78 81 82 79 76 68 57 57 61 47 36 28 17 14 13 11 9 8 7 7 7 8 7 5 5 4 4 4 4 4 4 3 2 3 3 4 5 6
94 88 82 85 91 89 84 77 75 68 58 52 49 42 37 30 24 19 15 12 10 9 8 8 7 7 7 6 5 5 5 4 4 4 4 3 3 2 3 3 4 5 5 5
98 97 96 92 85 78 72 68 58 48 45 40 35 31 26 20 15 12 10 9 8 7 7 7 7 7 5 4 4 4 4 4 4 4 3 2 2 3 3 4 5 5 5 5
Wind_Speed
79 78 75 75 74 71 67 68 64 70 66 66 63 62 64 63 61 60 60 61 62 64 68 70 72 72 72 71 72 67 67 68 72 75 80 85 89 94 97 98 100 101 101 103
80 81 79 78 75 71 69 68 68 71 70 67 64 65 65 62 62 61 61 64 65 66 69 72 74 74 72 71 71 68 70 74 78 82 87 91 94 97 99 100 101 101 103 107
68 75 77 75 76 75 74 71 70 68 71 65 65 64 64 62 62 63 65 65 67 70 72 74 77 73 69 64 69 72 76 78 84 88 92 95 97 96 97 98 98 103 110 116
52 56 61 69 70 70 68 69 68 68 67 64 62 62 62 63 63 62 64 67 69 71 74 73 73 70 72 70 70 76 81 85 89 93 95 96 93 96 95 99 107 111 117 120
41 46 51 55 60 63 64 64 64 63 61 60 59 59 60 59 60 64 66 68 71 74 72 69 63 62 66 73 78 82 87 91 93 94 91 92 95 97 103 109 115 121 122 125
31 34 39 44 47 50 52 52 53 54 56 57 57 57 59 61 63 65 69 71 69 65 60 63 65 68 74 79 85 89 91 93 90 87 92 95 100 104 111 117 118 122 122 129
33 36 39 40 40 40 43 49 49 51 52 54 55 59 61 65 66 64 65 62 61 63 62 64 69 75 80 85 89 91 88 85 89 92 96 101 107 112 117 118 119 126 128 132
38 37 38 42 43 43 43 46 49 52 51 52 55 55 57 58 59 60 59 56 59 62 66 71 76 81 86 88 86 82 85 89 94 99 103 108 113 117 119 123 128 132 133 133
25 25 28 29 30 34 34 37 40 42 46 48 48 49 52 53 53 54 57 59 63 68 73 78 80 84 85 80 82 86 91 96 101 106 110 114 118 121 125 131 134 132 131 130
33 34 34 35 37 37 38 41 42 43 45 49 51 52 53 55 58 59 62 66 70 74 77 79 80 76 80 84 88 93 99 103 107 111 114 119 123 127 132 135 132 131 127 124
41 41 41 42 43 43 44 46 48 51 54 55 55 56 56 59 61 64 67 71 74 75 75 73 77 81 85 90 95 100 104 108 112 115 119 122 128 133 134 132 128 125 120 112
41 41 43 43 44 46 48 50 50 52 53 55 57 58 60 62 65 67 69 69 67 69 74 79 83 87 92 96 99 103 109 114 116 118 122 128 132 132 131 128 124 119 113 105
46 50 50 49 48 51 55 58 58 59 58 58 55 57 60 61 61 59 62 67 71 75 81 85 88 92 96 100 106 112 114 115 119 123 128 133 131 123 118 118 113 109 105 101
44 48 50 51 53 55 55 58 59 58 56 55 56 57 56 57 60 64 68 72 77 81 85 90 94 98 103 108 113 116 119 121 124 130 133 129 122 115 111 105 101 99 98 94
45 46 48 48 48 47 44 43 45 46 49 51 53 56 59 62 66 70 75 80 84 87 92 97 102 107 111 114 117 119 123 127 130 132 129 121 115 108 103 99 95 90 88 89
35 34 36 37 37 37 38 39 41 44 49 53 57 61 64 67 73 78 83 87 91 95 99 105 110 113 115 117 120 125 128 130 129 124 115 112 106 101 97 93 88 86 86 81
29 30 33 36 38 40 42 44 47 50 53 57 61 67 72 76 81 85 90 95 98 103 108 111 114 117 118 122 125 128 129 125 120 113 106 102 98 94 92 87 84 83 80 77
35 37 38 40 42 44 47 50 54 58 62 67 70 74 78 83 88 94 98 102 106 109 112 115 117 121 124 125 127 125 118 112 108 104 100 97 92 89 85 81 78 75 73 71
42 43 45 47 49 52 56 59 62 66 70 73 77 82 87 92 97 101 105 108 109 112 116 120 124 124 124 125 120 114 111 106 101 98 94 90 87 83 79 75 72 69 67 63
48 50 52 55 58 61 65 68 71 75 79 83 87 91 96 100 104 107 109 111 112 118 123 125 126 125 124 117 112 108 103 100 95 91 88 83 80 76 72 69 66 64 60 55
59 61 63 65 68 71 75 78 80 83 87 91 95 99 102 106 108 110 113 118 122 125 127 124 122 117 113 108 103 101 96 92 88 84 80 78 73 70 67 65 62 58 53 48
68 69 71 74 77 80 83 85 88 91 95 98 102 105 107 109 113 117 121 125 127 127 124 122 116 111 104 101 97 93 89 84 80 77 75 70 67 64 62 59 56 50 45 40
76 78 80 83 86 88 90 92 95 98 101 103 106 109 113 117 121 125 129 128 124 120 114 111 106 100 96 93 89 86 82 78 76 73 68 65 61 58 56 53 48 41 36 31
85 87 89 91 93 95 96 97 99 103 106 110 113 116 119 124 127 126 124 120 115 110 107 102 97 92 88 85 83 79 76 73 69 66 63 59 55 53 51 45 39 33 27 23
90 92 94 95 96 99 103 106 108 111 114 117 120 122 125 124 123 118 113 110 105 100 96 92 89 85 82 80 78 75 70 66 64 61 57 53 51 48 42 36 30 24 20 15
97 99 100 102 105 107 109 112 116 118 120 121 120 119 117 113 112 112 108 100 96 93 89 88 84 81 78 76 72 68 65 61 59 55 51 49 44 40 33 27 22 17 13 7
103 105 107 111 113 115 118 119 120 118 115 113 111 109 110 109 105 98 94 91 89 87 84 81 79 76 72 68 65 62 59 56 52 51 47 42 36 30 25 20 15 11 6 1
Wind_Direction
219 222 226 229 233 237 240 243 247 250 255 260 262 262 267 269 271 273 275 276 278 277 276 282 285 288 290 288 285 286 287 289 292 293 294 295 297 298 300 300 299 299 300 301
221 225 228 232 235 239 242 243 245 249 253 257 261 264 265 268 271 273 274 275 276 277 276 280 284 289 290 286 284 288 290 291 294 295 295 295 298 300 300 300 300 301 303 305
219 223 228 232 235 238 241 244 247 251 254 256 259 262 266 267 268 269 271 274 274 276 280 283 287 289 285 285 289 290 292 292 293 294 296 299 301 300 300 300 303 306 307 307
221 224 227 231 234 237 240 243 246 250 254 257 259 261 263 264 266 270 271 273 277 280 284 286 285 284 286 289 291 291 292 293 295 297 299 300 300 301 304 308 308 309 307 305
217 220 226 231 235 239 242 245 249 251 253 255 256 257 258 262 265 268 274 277 279 281 284 285 286 286 288 288 290 293 294 296 298 299 300 301 303 307 308 309 308 307 306 305
221 226 231 234 236 238 241 244 246 249 252 255 259 263 266 268 271 273 275 277 280 281 280 283 286 288 290 291 293 294 297 298 299 300 303 305 307 308 308 308 307 306 305 307
232 237 240 240 243 246 247 250 251 254 257 260 263 265 267 269 272 271 274 274 277 282 283 286 289 290 292 294 295 296 298 301 302 305 306 308 309 309 307 306 305 307 307 308
235 239 241 244 246 248 252 255 258 259 261 263 266 267 268 267 267 272 275 277 280 286 289 288 289 292 294 294 296 299 302 303 306 307 309 309 308 307 307 307 308 308 309 309
221 227 233 238 246 248 249 250 250 253 255 259 263 266 266 266 271 275 279 283 285 286 287 290 291 292 293 296 299 301 303 305 307 308 308 307 308 309 308 309 309 310 309 309
227 231 232 234 237 243 246 248 251 254 256 258 261 263 266 270 275 277 280 283 285 287 289 290 292 294 297 299 301 302 303 305 306 307 308 309 310 309 310 310 310 309 310 309
233 235 235 238 239 242 243 246 253 257 260 262 265 268 271 276 280 282 283 285 287 289 291 293 295 296 299 300 301 302 304 304 306 307 308 309 309 310 311 311 310 310 309 309
243 245 246 248 250 252 255 262 264 262 265 269 273 277 280 281 283 284 285 288 290 292 295 296 298 299 299 298 300 302 304 306 307 308 308 308 310 310 311 311 311 310 310 310
249 251 253 255 258 261 263 263 263 265 269 272 276 279 282 282 284 286 288 290 292 294 297 297 297 296 298 301 303 303 305 307 307 307 309 309 309 310 310 312 311 311 311 311
250 253 256 258 259 261 262 262 264 267 271 273 277 281 282 284 287 288 289 291 294 295 296 297 297 299 301 303 305 306 306 307 309 309 309 308 309 310 311 311 311 311 311 311
252 254 256 259 263 267 269 268 268 269 272 276 279 281 284 287 289 291 292 294 295 296 297 298 299 302 303 304 305 306 308 309 309 309 309 311 311 311 311 312 312 311 310 311
252 254 257 262 266 267 269 272 275 277 278 279 280 282 285 289 290 292 293 294 294 296 298 300 302 302 304 305 306 309 308 309 310 309 312 312 313 313 312 312 311 311 310 311
252 255 257 259 262 268 272 275 276 279 281 283 285 288 290 290 290 291 293 295 297 298 299 301 303 304 305 307 309 310 310 309 310 312 313 312 312 312 313 312 311 311 310 312
263 265 269 272 275 277 278 280 282 284 285 285 286 288 289 290 291 293 296 298 299 301 302 302 304 306 308 309 310 309 309 311 312 313 312 311 312 312 311 310 310 310 312 313
268 270 273 276 278 279 280 281 282 282 283 285 287 288 289 292 294 296 298 300 301 302 303 306 307 308 310 311 310 311 312 313 312 311 310 311 311 312 312 312 312 312 313 317
272 274 275 276 277 278 279 280 281 283 285 288 289 291 293 295 296 298 300 301 303 305 306 307 309 311 312 311 311 312 312 312 310 310 311 312 313 313 313 313 314 315 319 320
270 271 273 275 278 279 281 283 285 287 289 291 293 293 295 296 298 299 302 303 304 306 308 309 311 312 312 312 311 311 310 311 311 311 312 313 314 314 315 315 316 319 321 319
273 274 276 278 280 282 284 287 289 291 292 293 294 295 296 298 300 302 303 304 305 307 309 311 311 311 311 311 311 311 312 312 312 313 314 314 315 316 316 317 319 322 320 320
276 278 280 282 283 285 287 289 290 291 292 294 295 297 298 300 301 302 303 304 306 308 311 310 310 311 311 311 312 313 313 313 314 314 314 315 316 317 316 318 321 321 320 321
279 280 282 283 285 287 288 289 290 292 294 295 296 297 298 299 301 303 304 306 308 309 309 310 310 311 311 313 315 314 313 314 314 314 313 315 317 317 318 323 321 321 322 320
278 280 282 284 285 287 289 291 292 293 293 295 296 298 299 301 302 303 305 307 308 308 309 310 311 312 314 315 314 313 314 314 313 313 315 317 318 318 323 321 321 321 320 323
278 281 283 286 287 287 288 290 292 293 294 296 298 299 300 300 302 303 305 306 306 308 309 311 312 314 314 314 314 315 314 313 313 315 316 318 319 320 322 322 321 321 324 332
280 281 283 284 286 287 289 291 292 294 294 295 297 298 299 301 302 304 304 305 307 308 310 311 312 313 314 315 315 314 313 314 316 316 318 319 321 321 323 321 322 325 339 100